Regional Weather Roundup
Issued by NWS

Home | Current Version | Previous Version | Graphics & Text | Print | Product List | Glossary On
Versions: 1 2 3 4 5 6 7 8 9 10 11 12 13 14 15 16 17 18 19 20 21 22 23 24 25 26 27 28 29 30 31 32 33 34 35 36 37 38 39 40 41 42 43 44 45 46 47 48 49 50
000
ASUS43 KOAX 231510
RWRNE

WEATHER ROUNDUP FOR NEBRASKA
NATIONAL WEATHER SERVICE OMAHA NE
1000 AM CDT TUE AUG 23 2016

NOTES: SATELLITE DATA IS BEING USED TO AUGMENT CLOUD COVER ABOVE
       12000 FEET.
       "FAIR" INDICATES FEW OR NO CLOUDS BELOW 12,000 FEET WITH NO
       SIGNIFICANT WEATHER AND/OR OBSTRUCTIONS TO VISIBILITY.

  * THESE STATIONS DO NOT REPORT WEATHER SUCH AS RAIN...SNOW OR FOG.

NEZ001>004-019>022-054>056-231600-
NEBRASKA PANHANDLE

CITY           SKY/WX    TMP DP  RH WIND       PRES   REMARKS
SCOTTSBLUFF    SUNNY     69  52  54 NW9       29.94R
ALLIANCE       SUNNY     69  45  41 W17       29.89R
CHADRON        SUNNY     73  31  21 W22G29    29.87R
KIMBALL        SUNNY     73  42  33 NW15      29.99R
SIDNEY         SUNNY     73  48  41 NW10      29.95R
$$

NEZ057>060-069>072-079>082-231600-
SOUTHWEST NEBRASKA

CITY           SKY/WX    TMP DP  RH WIND       PRES   REMARKS
NORTH PLATTE   SUNNY     75  64  68 S8        29.83F
IMPERIAL       SUNNY     73  62  68 W7        29.86S
LEXINGTON      PTSUNNY   73  67  80 S14       29.84S
MCCOOK         SUNNY     74  65  73 SW12      29.83S
OGALLALA       SUNNY     72  62  69 W5        29.87F
$$

NEZ005>010-023>029-035>040-094-231600-
NORTH CENTRAL NEBRASKA

CITY           SKY/WX    TMP DP  RH WIND       PRES   REMARKS
VALENTINE      SUNNY     76  60  57 S18G24    29.78S
AINSWORTH      SUNNY     74  64  69 S18G24    29.80F
BROKEN BOW     CLOUDY    71  66  84 S13G23    29.85R
O`NEILL        CLOUDY    73  63  70 S17       29.84R
ORD            CLOUDY    69  64  84 SE9       29.83F
THEDFORD       SUNNY     76  64  67 S14       29.84R
$$

NEZ041-046>049-061>064-073>077-083>087-231600-
SOUTH CENTRAL NEBRASKA

CITY           SKY/WX    TMP DP  RH WIND       PRES   REMARKS
GRAND ISLAND   CLOUDY    74  68  81 S15G22    29.86S
AURORA         CLOUDY    74  70  88 S16G22    29.87F
HASTINGS       PTSUNNY   75  68  78 S13G23    29.86F
HEBRON         CLOUDY    74  70  86 S14       29.90F
HOLDREGE       MOSUNNY   74  67  80 S15G22    29.84S
KEARNEY *      CLOUDY    73  66  78 S20G25    29.83F
YORK           CLOUDY    73  68  83 S14       29.89S
$$

NEZ011>018-030>034-042>045-231600-
NORTHEAST NEBRASKA

CITY           SKY/WX    TMP DP  RH WIND       PRES   REMARKS
NORFOLK        LGT RAIN  68  65  90 S13       29.89R
ALBION         CLOUDY    66  64  93 SE8       29.87F THUNDER FOG
BLAIR          CLOUDY    71  67  88 S14G20    29.95S
FREMONT        CLOUDY    71  67  88 SE14G20   29.92F
TEKAMAH        PTSUNNY   74  67  78 S15       29.93S
WAYNE          LGT RAIN  68  67  94 S12       29.89F
$$

NEZ050>053-065>068-078-088>093-231600-
SOUTHEAST NEBRASKA

CITY           SKY/WX    TMP DP  RH WIND       PRES   REMARKS
LINCOLN        CLOUDY    76  70  82 S18G25    29.92S
OMAHA EPPLEY   CLOUDY    72  67  84 S17       29.95F
BEATRICE       CLOUDY    75  70  84 S16G22    29.93S
FALLS CITY     CLOUDY    73  69  87 SE10      29.98S
NEBRASKA CITY  CLOUDY    73  73  99 S12       29.96F
PLATTSMOUTH    CLOUDY    70  69  95 SE14      29.96F FOG
$$

NEZ044-045-051>053-067-231600-
OMAHA AREA

CITY           SKY/WX    TMP DP  RH WIND       PRES   REMARKS
OMAHA EPPLEY   CLOUDY    72  67  84 S17       29.95F
BLAIR          CLOUDY    71  67  88 S14G20    29.95S
FREMONT        CLOUDY    71  67  88 SE14G20   29.92F
MILLARD        CLOUDY    72  68  88 SE12      29.94F
OFFUTT AFB     CLOUDY    70  69  95 SE14      29.94F
PLATTSMOUTH    CLOUDY    70  69  95 SE14      29.96F FOG
WAHOO          CLOUDY    71  68  88 S14G21    29.93S
$$




USA.gov is the U.S. government's official web portal to all federal, state and local government web resources and services.